Home > Weather > Cape Coral > Past weeks

Flag for USA Past Weather in Cape Coral, Florida, USA — Yesterday and Last 2 Weeks

Now
82 °F

Clear.


Feels Like: 90 °F
Forecast: 77 / 93 °F
Wind: 3 mph from Northeast

Location: Page Field

Current Time: Jul 28, 2016 at 12:50:13 AM

Latest Report: Jul 27, 2016 at 11:53 PM


Visibility: 10 mi

Pressure: 30.06 "Hg

Humidity: 85%

Dew Point: 77 °F

Location of Cape CoralLocation

Past Weather in Cape Coral — Graph

°F

Cape Coral Temperature Yesterday

Maximum temperature yesterday: 93 °F (at 2:53 PM)
Minimum temperature yesterday: 77 °F (at 4:53 AM)
Average temperature yesterday: 84 °F

High & Low Weather Summary for the Past Weeks

 TemperatureHumidityPressure
High94 °F (Jul 13, 1:53 PM)100% (Jul 17, 6:53 AM)30.19 "Hg (Jul 17, 6:53 AM)
Low72 °F (Jul 24, 1:53 AM)44% (Jul 26, 3:53 PM)29.99 "Hg (Jul 27, 5:53 PM)
Average81 °F80%30.08 "Hg
* Reported Jul 12 11:53 PM — Jul 27 11:53 PM, Cape Coral, Weather by CustomWeather, © 2016

Note: Actual official high and low records may vary slightly from our data, if they occured in-between our weather recording intervals... More about our weather records

Advertising

Cape Coral Weather History for the Previous 24 Hours

Scroll right to see more
 ConditionsComfort  
Time TempWeatherWind HumidityBarometerVisibility
11:53 PM
Wed, Jul 27
82 °FClear.3 mph85%30.06 "Hg10 mi
10:53 PM83 °FPassing clouds.7 mph82%30.06 "Hg10 mi
9:53 PM85 °FPassing clouds.3 mph75%30.04 "Hg10 mi
8:53 PM85 °FSunny.6 mph75%30.03 "Hg10 mi
7:53 PM87 °FPartly sunny.7 mph69%30.02 "Hg10 mi
6:53 PM88 °FScattered clouds.8 mph67%30.01 "Hg10 mi
5:53 PM89 °FSunny.6 mph68%29.99 "Hg10 mi
4:53 PM89 °FSunny.10 mph68%30.01 "Hg10 mi
3:53 PM90 °FSunny.13 mph63%30.02 "Hg10 mi
2:53 PM93 °FThundershowers. Sunny.9 mph50%30.03 "Hg10 mi
1:53 PM92 °FScattered clouds.9 mph56%30.05 "Hg10 mi
12:53 PM92 °FPassing clouds.7 mph56%30.07 "Hg10 mi
11:53 AM90 °FPassing clouds.7 mph59%30.07 "Hg10 mi
10:53 AM88 °FScattered clouds.8 mph65%30.09 "Hg10 mi
9:53 AM86 °FSunny.8 mph70%30.09 "Hg10 mi
8:53 AM83 °FSunny.7 mph74%30.09 "Hg10 mi
7:53 AM78 °FSunny.5 mph93%30.08 "Hg10 mi
6:53 AM77 °FClear.3 mph94%30.06 "Hg10 mi
5:53 AM77 °FClear.3 mph94%30.04 "Hg10 mi
4:53 AM77 °FClear.5 mph94%30.04 "Hg10 mi
3:53 AM78 °FClear.3 mph90%30.04 "Hg10 mi
2:53 AM78 °FClear.5 mph90%30.06 "Hg10 mi
1:53 AM78 °FClear.3 mph93%30.07 "Hg10 mi
12:53 AM79 °FClear.No wind90%30.07 "Hg10 mi
Weather by CustomWeather, © 2016

See weather overviewHow to use our weather pages